DateTimeUTC,F1_A11,F1_S11,BsB_S11,BsG_S11,BsR_S11,BbsB_S11,BbsG_S11,BbsR_S11,BaB_A11,BaG_A11,BaR_A11,Tu_S11,T_S11,Uu_S11,U_S11,P_S11,T1_A11
2021-10-28T15:00:00Z,00000200,21000000,,,,,,,0000.13,-000.31,-000.04,18.5,25.5,,00.0,0648.8,31.1
2021-10-28T15:01:00Z,00000200,21000000,,,,,,,-000.19,0000.42,-000.13,18.5,25.5,,00.0,0648.8,31.1
2021-10-28T15:02:00Z,00000200,21000000,,,,,,,0000.30,-000.04,0000.23,18.5,25.6,,00.0,0648.8,31.1
2021-10-28T15:03:00Z,00000200,61000000,,,,,,,0000.10,0000.68,0000.18,18.5,25.5,,00.0,0648.8,31.1
2021-10-28T15:04:00Z,00000200,41000000,-000.60,0000.18,0000.16,0000.17,0000.27,0000.16,0000.39,-000.09,0000.16,18.9,25.5,,00.0,0649.7,31.2
2021-10-28T15:05:00Z,00000200,01000000,-000.23,0000.37,0000.07,0000.38,0000.32,0000.34,0000.10,0000.04,0000.15,19.0,25.6,,00.0,0649.7,31.2
2021-10-28T15:06:00Z,00000200,01000000,-000.47,0000.23,0000.05,0000.11,-000.06,0000.14,-000.31,0000.05,-000.12,19.0,25.5,,00.0,0649.8,31.1
2021-10-28T15:07:00Z,00000200,01000000,-000.37,-000.03,-000.05,0000.34,0000.27,0000.10,0000.30,0000.02,-000.16,18.9,25.5,,00.0,0649.8,31.1
2021-10-28T15:08:00Z,00000200,01000000,-000.01,0000.48,0000.07,-000.43,0000.23,-000.13,0000.09,0000.33,0000.30,18.8,25.5,,00.0,0649.8,31.1
2021-10-28T15:09:00Z,00000200,01000000,0000.03,0000.38,0000.45,-000.06,0000.24,0000.25,0000.23,0000.02,0000.19,18.7,25.4,,00.0,0649.7,31.1
2021-10-28T15:10:00Z,00000200,01000000,-000.24,-000.10,-000.21,-000.42,0000.39,-000.02,0000.57,0000.36,-000.31,18.7,25.4,,00.0,0649.7,31.1
2021-10-28T15:11:00Z,00000200,01000000,0000.31,0000.27,-000.05,0000.67,0000.43,-000.15,0000.27,0000.23,0001.05,18.6,25.3,,00.0,0649.7,31.1
2021-10-28T15:12:00Z,00000200,01000000,-000.32,0000.37,-000.01,0000.20,0000.11,0000.14,0000.15,0000.65,0000.17,18.6,25.3,,00.0,0649.7,31.1
2021-10-28T15:13:00Z,00000200,01000000,0000.64,0000.16,0000.38,0000.33,0000.24,-000.04,0000.76,0000.56,-000.02,18.7,25.3,,00.0,0649.7,31.1
2021-10-28T15:14:00Z,00000200,01000000,-000.26,0000.44,0000.53,-000.44,0000.36,0000.61,0000.58,0000.54,0000.98,18.7,25.4,,00.0,0649.6,31.1
2021-10-28T15:15:00Z,00000200,01000000,-000.35,0000.33,0000.01,0000.01,0000.13,0000.11,0000.27,-000.01,-000.16,18.8,25.4,,00.0,0649.6,31.1
2021-10-28T15:16:00Z,00000200,01000000,0000.19,0000.04,0000.33,-000.49,0000.10,0000.19,0000.39,0000.24,0000.26,18.8,25.4,,00.0,0649.6,31.1
2021-10-28T15:17:00Z,00000200,01000000,-000.04,0000.27,0000.13,-000.01,0000.36,-000.11,-000.17,0000.46,0000.11,18.9,25.4,,00.0,0649.7,31.1
2021-10-28T15:18:00Z,00000200,01000000,0000.59,-000.00,0000.12,-000.42,0000.38,0000.18,-000.25,-000.29,0000.04,19.0,25.5,,00.0,0649.7,31.1
2021-10-28T15:19:00Z,00000200,01000000,0000.34,0000.21,-000.17,0000.03,-000.07,-000.00,0000.51,0000.27,0000.25,19.0,25.5,,00.0,0649.7,31.2
2021-10-28T15:20:00Z,00000200,01000000,-000.18,0000.03,0000.01,-000.68,-000.12,0000.27,0000.30,0000.53,0000.07,19.1,25.5,,00.0,0649.7,31.2
2021-10-28T15:21:00Z,00000200,01000000,-000.09,0000.12,0000.37,0000.17,-000.00,0000.10,0000.23,0000.02,0000.24,19.1,25.6,,00.0,0649.6,31.1
2021-10-28T15:22:00Z,00000200,01000000,-000.05,0000.07,0000.11,0000.24,0000.15,0000.17,0001.29,0000.99,0000.78,19.0,25.5,,00.0,0649.6,31.1
2021-10-28T15:23:00Z,00000200,01000000,0000.22,0000.03,0000.06,-000.17,0000.17,0000.26,0000.94,0000.95,0000.78,19.0,25.5,,00.0,0649.6,31.1
2021-10-28T15:24:00Z,00000200,01000000,0000.21,0000.42,0000.14,0000.26,0000.14,0000.27,0000.62,0000.52,0000.43,18.9,25.5,,00.0,0649.6,31.1
2021-10-28T15:25:00Z,00000200,01000000,0000.41,0000.50,0000.12,0000.10,0000.28,-000.07,0000.55,0000.51,0000.43,18.8,25.4,,00.0,0649.6,31.1
2021-10-28T15:26:00Z,00000200,01000000,0000.48,0000.36,0000.07,0000.00,0000.11,-000.13,0000.60,0000.51,0000.44,18.8,25.4,,00.0,0649.6,31.1
2021-10-28T15:27:00Z,00000200,01000000,0000.10,0000.22,0000.11,-000.07,0000.19,-000.03,0000.64,0000.33,0000.27,18.8,25.4,,00.0,0649.6,31.1
2021-10-28T15:28:00Z,00000200,01000000,0000.62,0000.03,-000.21,0000.32,0000.08,0000.00,0000.38,0000.72,0000.57,18.8,25.4,,00.0,0649.5,31.1
2021-10-28T15:29:00Z,00000200,01000000,-000.20,-000.22,0000.33,0000.46,0000.13,0000.24,0000.58,0000.26,0000.34,18.8,25.4,,00.0,0649.5,31.1
2021-10-28T15:30:00Z,00000200,01000000,-000.76,0000.26,0000.24,-000.26,-000.01,-000.08,-000.14,0000.59,0000.14,18.9,25.4,,00.0,0649.5,31.1
2021-10-28T15:31:00Z,00000200,01000000,-000.32,0000.18,-000.09,0000.33,0000.12,0000.03,0000.62,-000.00,0000.21,19.0,25.5,,00.0,0649.5,31.1
2021-10-28T15:32:00Z,00000200,01000000,-000.13,-000.17,0000.18,-000.17,0000.09,0000.37,0000.44,0000.42,0000.15,19.0,25.5,,00.0,0649.5,31.2
2021-10-28T15:33:00Z,00000200,01000000,-000.49,0000.23,0000.04,0000.13,-000.01,0000.12,0000.24,0000.14,0000.15,19.1,25.5,,00.0,0649.5,31.2
2021-10-28T15:34:00Z,00000200,01000000,0000.96,0000.13,-000.07,-000.08,0000.20,0000.03,-000.21,0000.21,0000.09,19.1,25.6,,00.0,0649.5,31.2
2021-10-28T15:35:00Z,00000200,01000000,0000.19,0000.19,0000.25,0000.46,0000.22,0000.26,0000.20,0000.03,0000.19,19.1,25.6,,00.0,0649.5,31.1
2021-10-28T15:36:00Z,00000200,01000000,-000.18,0000.57,0000.45,0000.04,0000.27,-000.01,-000.06,-000.17,-000.01,19.1,25.6,,00.0,0649.5,31.1
2021-10-28T15:37:00Z,00000200,01000000,0000.90,0000.14,-000.01,0000.09,-000.09,-000.02,0000.25,-000.06,-000.03,19.0,25.5,,00.0,0649.5,31.1
2021-10-28T15:38:00Z,00000200,01000000,0000.90,0000.30,-000.01,0000.36,-000.30,-000.10,-000.41,-000.43,-000.34,18.9,25.5,,00.0,0649.5,31.1
2021-10-28T15:39:00Z,00000200,01000000,-000.26,0000.04,-000.12,0000.11,0000.46,-000.02,-000.15,-000.06,-000.40,18.8,25.5,,00.0,0649.5,31.1
2021-10-28T15:40:00Z,00000200,01000000,-000.39,-000.00,0000.18,0000.01,0000.05,0000.02,-000.12,-000.19,0000.16,18.8,25.4,,00.0,0649.5,31.1
2021-10-28T15:41:00Z,00000200,01000000,-000.41,-000.02,-000.09,-000.17,0000.31,0000.07,-000.23,-000.15,-000.65,18.7,25.4,,00.0,0649.5,31.1
2021-10-28T15:42:00Z,00000200,01000000,-000.35,0000.20,-000.07,-000.18,0000.33,0000.13,0000.04,-000.70,0000.16,18.7,25.4,,00.0,0649.5,31.1
2021-10-28T15:43:00Z,00000200,01000000,-000.16,0000.05,-000.04,-000.33,0000.26,0000.23,-000.24,0000.47,0000.12,18.8,25.4,,00.0,0649.5,31.1
2021-10-28T15:44:00Z,00000200,01000000,-000.21,-000.05,-000.01,0000.52,0000.28,0000.35,0000.61,0000.44,0000.28,18.8,25.4,,00.0,0649.5,31.1
2021-10-28T15:45:00Z,00000200,01000000,0000.39,0000.16,-000.03,-000.12,-000.18,0000.11,-000.05,0000.04,0000.02,18.8,25.4,,00.0,0649.5,31.1
2021-10-28T15:46:00Z,00000200,01000000,0000.16,0000.15,-000.09,-000.09,0000.07,-000.13,-000.24,-000.36,0000.17,18.9,25.4,,00.0,0649.5,31.1
2021-10-28T15:47:00Z,00000200,01000000,0000.03,0000.24,0000.07,-000.03,0000.18,-000.03,-000.10,0000.42,-000.16,19.0,25.5,,00.0,0649.5,31.1
2021-10-28T15:48:00Z,00000200,01000000,-000.19,-000.06,-000.06,-000.16,0000.09,0000.07,0000.44,0000.25,0000.21,19.1,25.5,,00.0,0649.5,31.2
2021-10-28T15:49:00Z,00000200,01000000,-000.58,0000.00,0000.02,0000.56,0000.11,0000.09,0000.19,0000.11,0000.27,19.1,25.5,,00.0,0649.6,31.1
2021-10-28T15:50:00Z,00000200,01000000,-000.05,0000.55,0000.21,0000.03,0000.42,0000.13,0000.33,0000.39,-000.04,19.2,25.6,,00.0,0649.6,31.2
2021-10-28T15:51:00Z,00000200,01000000,-000.29,0000.14,0000.02,-000.34,0000.01,-000.32,-000.08,-000.19,0000.06,19.3,25.6,,00.0,0649.6,31.2
2021-10-28T15:52:00Z,00000200,01000000,-000.37,0000.13,-000.01,0000.28,0000.28,0000.24,-000.22,-000.21,-000.09,19.2,25.6,,00.0,0649.6,31.2
2021-10-28T15:53:00Z,00000200,01000000,0000.34,0000.07,0000.30,-000.08,0000.26,0000.02,-000.28,0000.17,-000.14,19.2,25.6,,00.0,0649.6,31.1
2021-10-28T15:54:00Z,00000200,01000000,0000.22,0000.13,0000.25,-000.20,0000.30,0000.09,0000.11,-000.12,-000.08,19.1,25.6,,00.0,0649.5,31.1
2021-10-28T15:55:00Z,00000200,01000000,0000.33,0000.29,0000.06,-000.59,0000.14,0000.11,0000.66,0000.48,0000.33,19.0,25.5,,00.0,0649.5,31.1
2021-10-28T15:56:00Z,00000200,01000000,-000.40,-000.03,0000.07,0000.59,-000.20,0000.15,0000.22,0000.40,0000.50,19.0,25.5,,00.0,0649.5,31.1
2021-10-28T15:57:00Z,00000200,41000000,,,,,,,-000.41,-000.59,-000.41,19.0,25.5,,00.0,0649.5,31.1
2021-10-28T15:58:00Z,00000200,61010000,,,,,,,0000.43,0000.56,0000.12,18.8,25.6,,00.0,0648.5,31.1
2021-10-28T15:59:00Z,00000200,21000000,,,,,,,0000.31,0000.21,0000.38,18.8,25.7,,00.0,0648.5,31.1
